FW7071 Weather Reports


Display with metric or nautical units.
time (UTC)temp
F
wind
direction
speed
MPH
gust
MPH
rain 1hr
in
rain 24hr
in
rain mn
in
humidity
%
barometer
mb
20260506051313 68 143 0.0 0.0 0.00 0.00 0.00 66 1011.7
20260506050811 68 140 1.0 2.0 0.00 0.00 0.00 66 1011.7
20260506050308 68 131 2.0 3.0 0.00 0.00 0.00 66 1011.7
20260506044758 68 112 0.0 1.0 0.00 0.00 0.00 66 1011.5
20260506044256 68 103 0.0 0.0 0.00 0.00 0.00 65 1011.7
20260506043753 68 302 0.0 1.0 0.00 0.00 0.00 65 1011.6
20260506043250 69 112 1.0 2.0 0.00 0.00 0.00 64 1011.9
20260506042749 69 119 1.0 2.0 0.00 0.00 0.00 64 1011.9
20260506042248 69 230 0.0 1.0 0.00 0.00 0.00 64 1011.7
20260506041746 69 20 1.0 1.0 0.00 0.00 0.00 63 1011.9
20260506041242 69 214 0.0 1.0 0.00 0.00 0.00 63 1011.7
20260506040739 69 248 1.0 2.0 0.00 0.00 0.00 64 1011.8
20260506040236 69 91 1.0 1.0 0.00 0.00 0.00 64 1011.7
20260506035733 69 225 2.0 6.0 0.00 0.00 0.00 63 1011.6
20260506035230 69 282 4.0 5.0 0.00 0.00 0.00 63 1011.4
20260506034727 69 72 1.0 2.0 0.00 0.00 0.00 63 1011.6
20260506034224 69 100 2.0 3.0 0.00 0.00 0.00 62 1011.6
20260506033721 70 120 0.0 0.0 0.00 0.00 0.00 61 1011.6
20260506033218 70 237 4.0 6.0 0.00 0.00 0.00 61 1011.3
20260506032715 70 234 2.0 2.0 0.00 0.00 0.00 61 1011.4
20260506032212 70 231 0.0 0.0 0.00 0.00 0.00 61 1011.3
20260506031709 70 265 2.0 2.0 0.00 0.00 0.00 61 1011.5
20260506031206 70 255 5.0 7.0 0.00 0.00 0.00 60 1011.4
20260506030704 70 269 3.0 3.0 0.00 0.00 0.00 60 1011.4
20260506030201 70 188 0.0 1.0 0.00 0.00 0.00 59 1011.4
20260506025658 71 170 3.0 3.0 0.00 0.00 0.00 59 1011.6
20260506025154 71 206 2.0 2.0 0.00 0.00 0.00 59 1011.5
20260506024652 70 230 5.0 6.0 0.00 0.00 0.00 59 1011.3
20260506024148 70 96 5.0 6.0 0.00 0.00 0.00 58 1011.4
20260506023644 70 194 2.0 2.0 0.00 0.00 0.00 58 1011.5
20260506023142 71 123 3.0 3.0 0.00 0.00 0.00 58 1011.5
20260506022639 71 158 0.0 0.0 0.00 0.00 0.00 57 1011.4
20260506022136 71 193 1.0 1.0 0.00 0.00 0.00 57 1011.7
20260506021634 72 174 1.0 1.0 0.00 0.00 0.00 56 1011.7
20260506021131 72 168 2.0 3.0 0.00 0.00 0.00 56 1011.4
20260506020628 72 216 2.0 2.0 0.00 0.00 0.00 55 1011.5
20260506020125 72 146 0.0 0.0 0.00 0.00 0.00 55 1011.7
20260506015623 72 294 4.0 7.0 0.00 0.00 0.00 55 1011.3
20260506015120 72 240 1.0 1.0 0.00 0.00 0.00 55 1011.3
20260506014617 72 234 5.0 7.0 0.00 0.00 0.00 54 1011.5
20260506014112 72 82 1.0 1.0 0.00 0.00 0.00 55 1011.5
20260506013611 73 297 1.0 2.0 0.00 0.00 0.00 53 1011.5
20260506013108 73 202 2.0 2.0 0.00 0.00 0.00 52 1011.4
20260506012604 73 284 3.0 3.0 0.00 0.00 0.00 52 1011.3
20260506012100 74 268 5.0 6.0 0.00 0.00 0.00 51 1011.3
20260506011558 74 322 1.0 3.0 0.00 0.00 0.00 51 1011.1
20260506011054 74 96 2.0 2.0 0.00 0.00 0.00 51 1010.9
20260506010553 74 180 1.0 2.0 0.00 0.00 0.00 50 1011.1
20260506010049 74 93 3.0 3.0 0.00 0.00 0.00 50 1011.0
20260506005547 74 138 0.0 0.0 0.00 0.00 0.00 50 1010.8
20260506005043 74 142 0.0 1.0 0.00 0.00 0.00 49 1011.0
20260506004541 75 305 2.0 2.0 0.00 0.00 0.00 49 1010.8
20260506004037 75 76 2.0 5.0 0.00 0.00 0.00 48 1010.7
20260506003533 75 210 4.0 6.0 0.00 0.00 0.00 47 1010.6
20260506003030 76 241 3.0 8.0 0.00 0.00 0.00 47 1010.6
20260506002526 76 259 3.0 5.0 0.00 0.00 0.00 47 1010.6
20260506002022 75 245 4.0 6.0 0.00 0.00 0.00 47 1010.7
20260506001518 76 294 3.0 3.0 0.00 0.00 0.00 47 1010.5
20260506001015 76 161 0.0 0.0 0.00 0.00 0.00 47 1010.5
20260506000513 76 273 2.0 2.0 0.00 0.00 0.00 47 1010.3
20260506000010 76 243 5.0 8.0 0.00 0.00 0.00 46 1010.3
20260505235508 76 237 1.0 1.0 0.00 0.00 0.00 46 1010.4
20260505235004 77 198 3.0 5.0 0.00 0.00 0.00 46 1010.5
20260505234502 77 202 3.0 5.0 0.00 0.00 0.00 45 1010.1
20260505233958 77 292 5.0 7.0 0.00 0.00 0.00 45 1010.3
20260505233456 77 300 1.0 1.0 0.00 0.00 0.00 45 1010.2
20260505232953 77 255 3.0 6.0 0.00 0.00 0.00 45 1010.4
20260505232451 77 148 4.0 6.0 0.00 0.00 0.00 45 1010.3
20260505231948 77 206 5.0 6.0 0.00 0.00 0.00 45 1010.2
20260505231445 77 212 2.0 3.0 0.00 0.00 0.00 45 1010.4
20260505230943 78 226 5.0 7.0 0.00 0.00 0.00 45 1010.2
20260505230441 78 241 4.0 6.0 0.00 0.00 0.00 45 1010.3
20260505225937 78 248 1.0 2.0 0.00 0.00 0.00 45 1010.2
20260505225434 78 307 7.0 9.0 0.00 0.00 0.00 44 1010.2
20260505224930 78 77 4.0 6.0 0.00 0.00 0.00 45 1010.0
20260505224427 78 221 1.0 3.0 0.00 0.00 0.00 45 1010.2
20260505223924 78 308 5.0 9.0 0.00 0.00 0.00 44 1010.1
20260505223421 79 238 2.0 6.0 0.00 0.00 0.00 44 1010.1
20260505222918 80 238 4.0 7.0 0.00 0.00 0.00 43 1009.9
20260505222414 80 265 4.0 9.0 0.00 0.00 0.00 44 1010.0
20260505221910 80 243 1.0 3.0 0.00 0.00 0.00 42 1010.2
20260505221408 80 181 1.0 1.0 0.00 0.00 0.00 43 1009.9
20260505220904 81 246 3.0 5.0 0.00 0.00 0.00 41 1009.9
20260505220401 81 306 5.0 7.0 0.00 0.00 0.00 42 1010.0
20260505215859 81 208 5.0 10.0 0.00 0.00 0.00 41 1010.0
20260505215357 81 188 8.0 10.0 0.00 0.00 0.00 40 1010.1
20260505214855 80 224 4.0 8.0 0.00 0.00 0.00 40 1009.9
20260505214352 80 181 5.0 11.0 0.00 0.00 0.00 42 1010.0
20260505213849 81 262 6.0 8.0 0.00 0.00 0.00 41 1010.2
20260505213347 82 158 5.0 9.0 0.00 0.00 0.00 40 1009.9
20260505212842 81 233 7.0 9.0 0.00 0.00 0.00 41 1009.9
20260505212340 81 228 7.0 11.0 0.00 0.00 0.00 41 1009.8
20260505211836 80 224 2.0 3.0 0.00 0.00 0.00 43 1009.7
20260505211334 80 228 7.0 8.0 0.00 0.00 0.00 42 1009.6
20260505210830 80 185 4.0 6.0 0.00 0.00 0.00 42 1009.8
20260505210327 80 260 3.0 5.0 0.00 0.00 0.00 41 1009.4
20260505205824 80 131 6.0 9.0 0.00 0.00 0.00 42 1009.8
20260505205322 80 115 7.0 13.0 0.00 0.00 0.00 42 1009.9
20260505204818 80 329 9.0 11.0 0.00 0.00 0.00 42 1010.0
20260505204317 80 277 2.0 3.0 0.00 0.00 0.00 42 1009.9
20260505203814 80 23 6.0 9.0 0.00 0.00 0.00 42 1010.0
20260505203310 80 118 3.0 3.0 0.00 0.00 0.00 42 1010.2
20260505202806 81 31 3.0 3.0 0.00 0.00 0.00 42 1009.9
20260505202306 81 245 6.0 7.0 0.00 0.00 0.00 42 1010.3
20260505201759 81 210 3.0 6.0 0.00 0.00 0.00 42 1010.1
20260505201257 82 246 7.0 13.0 0.00 0.00 0.00 41 1010.2
20260505200755 81 266 5.0 6.0 0.00 0.00 0.00 42 1010.3
20260505200252 81 138 5.0 11.0 0.00 0.00 0.00 40 1010.2
20260505195747 80 172 2.0 2.0 0.00 0.00 0.00 43 1010.0
20260505195245 80 217 5.0 8.0 0.00 0.00 0.00 42 1010.1
20260505194742 81 300 7.0 9.0 0.00 0.00 0.00 40 1010.4
20260505194238 81 237 8.0 11.0 0.00 0.00 0.00 41 1010.2
20260505193734 81 203 3.0 6.0 0.00 0.00 0.00 41 1010.2
20260505193232 81 154 2.0 3.0 0.00 0.00 0.00 43 1010.4
20260505192730 82 265 9.0 13.0 0.00 0.00 0.00 41 1010.3
20260505192227 82 267 4.0 8.0 0.00 0.00 0.00 40 1010.3
20260505191725 81 186 5.0 8.0 0.00 0.00 0.00 41 1010.4
20260505191223 81 223 5.0 7.0 0.00 0.00 0.00 40 1010.6
20260505190719 81 275 5.0 7.0 0.00 0.00 0.00 40 1010.5
20260505190219 81 171 2.0 5.0 0.00 0.00 0.00 41 1010.5
20260505185716 81 199 3.0 3.0 0.00 0.00 0.00 42 1010.6
20260505185213 82 225 4.0 5.0 0.00 0.00 0.00 41 1010.8
20260505184709 81 172 3.0 6.0 0.00 0.00 0.00 40 1010.9
20260505184206 82 287 3.0 5.0 0.00 0.00 0.00 39 1010.8
20260505183703 82 256 5.0 8.0 0.00 0.00 0.00 39 1010.7
20260505183201 82 242 4.0 7.0 0.00 0.00 0.00 40 1010.8
20260505182656 81 252 5.0 8.0 0.00 0.00 0.00 39 1010.6
20260505182154 82 275 9.0 10.0 0.00 0.00 0.00 39 1010.9
20260505181650 81 212 2.0 3.0 0.00 0.00 0.00 41 1010.8
20260505181148 81 253 3.0 7.0 0.00 0.00 0.00 41 1010.7
20260505180643 82 247 4.0 8.0 0.00 0.00 0.00 40 1010.9
20260505180141 81 328 1.0 2.0 0.00 0.00 0.00 40 1011.0
20260505175637 81 182 3.0 3.0 0.00 0.00 0.00 43 1011.0
20260505175133 81 253 7.0 9.0 0.00 0.00 0.00 41 1011.0
20260505174630 81 271 8.0 10.0 0.00 0.00 0.00 39 1010.9
20260505174126 81 195 3.0 5.0 0.00 0.00 0.00 40 1011.0
20260505173623 81 276 2.0 2.0 0.00 0.00 0.00 41 1010.9
20260505173120 81 220 4.0 6.0 0.00 0.00 0.00 43 1011.1
20260505172618 81 222 4.0 6.0 0.00 0.00 0.00 44 1011.0
20260505172114 81 227 7.0 9.0 0.00 0.00 0.00 44 1011.2
20260505171609 82 263 5.0 6.0 0.00 0.00 0.00 44 1011.2
20260505171106 81 310 3.0 6.0 0.00 0.00 0.00 45 1011.4
20260505170603 80 232 1.0 2.0 0.00 0.00 0.00 45 1011.3
20260505170059 80 307 5.0 5.0 0.00 0.00 0.00 44 1011.4
20260505165554 80 272 4.0 6.0 0.00 0.00 0.00 44 1011.4
20260505165050 80 277 5.0 7.0 0.00 0.00 0.00 45 1011.5
20260505164546 80 158 5.0 7.0 0.00 0.00 0.00 46 1011.5
20260505164044 81 236 3.0 5.0 0.00 0.00 0.00 49 1011.6
20260505163543 80 265 4.0 7.0 0.00 0.00 0.00 47 1011.7
20260505163039 80 269 5.0 7.0 0.00 0.00 0.00 46 1011.6
20260505162532 80 310 5.0 10.0 0.00 0.00 0.00 45 1011.6
20260505162029 80 230 4.0 6.0 0.00 0.00 0.00 48 1011.8
20260505161526 80 213 5.0 7.0 0.00 0.00 0.00 46 1011.5
20260505161023 79 197 5.0 6.0 0.00 0.00 0.00 47 1011.7
20260505160521 79 137 5.0 6.0 0.00 0.00 0.00 47 1011.6
20260505152957 79 244 5.0 6.0 0.00 0.00 0.00 48 1012.2
20260505152455 78 266 2.0 6.0 0.00 0.00 0.00 47 1012.0
20260505151949 79 248 6.0 7.0 0.00 0.00 0.00 49 1012.1
20260505151445 78 262 5.0 6.0 0.00 0.00 0.00 49 1012.1
20260505150943 77 155 1.0 1.0 0.00 0.00 0.00 51 1012.0
20260505150439 76 261 3.0 3.0 0.00 0.00 0.00 50 1012.3
20260505140410 72 213 4.0 5.0 0.00 0.00 0.00 57 1012.8
20260505124823 67 157 2.0 2.0 0.00 0.00 0.00 65 1013.0
20260505124320 66 101 1.0 1.0 0.00 0.00 0.00 66 1013.0
20260505123815 66 98 3.0 5.0 0.00 0.00 0.00 66 1013.0
20260505123313 66 275 3.0 5.0 0.00 0.00 0.00 67 1013.1
20260505122809 65 173 1.0 2.0 0.00 0.00 0.00 67 1013.1
20260505122306 65 191 3.0 5.0 0.00 0.00 0.00 67 1013.0
20260505121802 65 101 0.0 0.0 0.00 0.00 0.00 69 1013.0
20260505121300 64 144 0.0 1.0 0.00 0.00 0.00 70 1013.0
20260505120756 64 103 0.0 0.0 0.00 0.00 0.00 71 1012.8
20260505120252 64 71 1.0 1.0 0.00 0.00 0.00 71 1012.8
20260505115751 63 133 2.0 3.0 0.00 0.00 0.00 71 1012.7
20260505115248 63 95 0.0 0.0 0.00 0.00 0.00 71 1012.9
20260505114746 63 138 1.0 2.0 0.00 0.00 0.00 71 1012.9
20260505114242 62 153 1.0 1.0 0.00 0.00 0.00 72 1012.7
20260505113739 62 175 1.0 1.0 0.00 0.00 0.00 72 1012.6
20260505113235 62 188 2.0 5.0 0.00 0.00 0.00 73 1012.7
20260505112731 61 119 0.0 0.0 0.00 0.00 0.00 74 1012.5
20260505112229 62 182 2.0 5.0 0.00 0.00 0.00 73 1012.6
20260505111729 61 221 2.0 2.0 0.00 0.00 0.00 73 1012.6
20260505111225 61 282 0.0 1.0 0.00 0.00 0.00 74 1012.5
20260505110721 60 148 0.0 1.0 0.00 0.00 0.00 75 1012.5
20260505110219 60 225 3.0 3.0 0.00 0.00 0.00 75 1012.3
20260505102154 58 280 2.0 2.0 0.00 0.00 0.00 78 1012.1
20260505101653 58 196 1.0 1.0 0.00 0.00 0.00 79 1012.3
20260505101149 57 139 1.0 2.0 0.00 0.00 0.00 81 1012.0
20260505100645 57 158 0.0 0.0 0.00 0.00 0.00 82 1012.1
20260505100142 57 91 0.0 1.0 0.00 0.00 0.00 80 1012.0
20260505095638 57 134 2.0 2.0 0.00 0.00 0.00 81 1012.1
20260505095136 57 175 0.0 0.0 0.00 0.00 0.00 80 1012.0
20260505094631 58 271 2.0 2.0 0.00 0.00 0.00 78 1012.0
20260505094128 58 178 0.0 0.0 0.00 0.00 0.00 78 1011.9
20260505093624 58 275 0.0 1.0 0.00 0.00 0.00 78 1011.9
20260505093121 57 270 1.0 2.0 0.00 0.00 0.00 81 1011.9
20260505092618 57 161 0.0 0.0 0.00 0.00 0.00 80 1011.9
20260505092118 58 169 0.0 0.0 0.00 0.00 0.00 79 1012.0
20260505091613 58 202 1.0 1.0 0.00 0.00 0.00 78 1012.0
20260505091112 59 172 0.0 0.0 0.00 0.00 0.00 77 1011.8
20260505090609 59 214 0.0 1.0 0.00 0.00 0.00 76 1011.7
20260505090108 59 162 0.0 0.0 0.00 0.00 0.00 76 1012.1
20260505085604 60 144 0.0 0.0 0.00 0.00 0.00 75 1012.0
20260505085103 60 204 0.0 0.0 0.00 0.00 0.00 75 1012.0
20260505084600 60 154 0.0 0.0 0.00 0.00 0.00 75 1011.7
20260505084058 60 236 0.0 1.0 0.00 0.00 0.00 74 1011.8
20260505083555 60 173 0.0 0.0 0.00 0.00 0.00 74 1011.8
20260505083052 60 172 0.0 0.0 0.00 0.00 0.00 73 1011.9
20260505082548 60 171 0.0 0.0 0.00 0.00 0.00 73 1011.7
20260505082045 61 134 0.0 0.0 0.00 0.00 0.00 73 1011.8
20260505081541 61 180 1.0 1.0 0.00 0.00 0.00 71 1011.9
20260505081038 61 182 1.0 1.0 0.00 0.00 0.00 72 1011.6
20260505080534 61 242 2.0 3.0 0.00 0.00 0.00 71 1011.7
20260505080031 62 242 4.0 6.0 0.00 0.00 0.00 71 1011.7
20260505075527 62 164 0.0 1.0 0.00 0.00 0.00 70 1011.7
20260505075024 62 174 0.0 1.0 0.00 0.00 0.00 70 1011.7
20260505074521 62 241 1.0 2.0 0.00 0.00 0.00 70 1011.6
20260505074018 62 263 1.0 2.0 0.00 0.00 0.00 70 1011.7
20260505073516 62 238 1.0 1.0 0.00 0.00 0.00 70 1011.6
20260505073014 62 289 1.0 3.0 0.00 0.00 0.00 69 1011.7
20260505072509 62 233 2.0 2.0 0.00 0.00 0.00 69 1011.7
20260505072006 62 257 1.0 1.0 0.00 0.00 0.00 69 1011.9
20260505071501 62 199 1.0 1.0 0.00 0.00 0.00 69 1011.6
20260505071000 62 225 5.0 6.0 0.00 0.00 0.00 68 1011.8
20260505070456 62 196 2.0 3.0 0.00 0.00 0.00 68 1011.8
20260505065952 62 279 2.0 2.0 0.00 0.00 0.00 68 1011.9
20260505065448 62 225 4.0 5.0 0.00 0.00 0.00 68 1011.8
20260505064945 62 251 0.0 1.0 0.00 0.00 0.00 68 1011.8
20260505064442 62 223 2.0 2.0 0.00 0.00 0.00 68 1011.7
20260505063941 62 227 3.0 3.0 0.00 0.00 0.00 68 1011.7
20260505063437 62 291 7.0 10.0 0.00 0.00 0.00 68 1011.6
20260505062933 61 216 3.0 3.0 0.00 0.00 0.00 68 1011.7
20260505062431 61 234 1.0 1.0 0.00 0.00 0.00 69 1011.6
20260505061927 61 215 1.0 2.0 0.00 0.00 0.00 68 1011.9
20260505061426 61 226 1.0 2.0 0.00 0.00 0.00 68 1011.9
20260505060923 61 212 0.0 0.0 0.00 0.00 0.00 68 1012.0
20260505060419 61 220 2.0 3.0 0.00 0.00 0.00 68 1011.8
20260505055916 61 264 3.0 3.0 0.00 0.00 0.00 67 1011.7
20260505055412 61 234 0.0 1.0 0.00 0.00 0.00 67 1011.9